Greenville, SC

9:35 PM EST on February 11, 2016 (GMT -0500)
Greenville Downtown

Weather History for KGMU - February, 2011

Change the Weather History Date:

Monday, February 14, 2011

  Actual Average Record
Temperature  
Mean Temperature 57 °F -  
Max Temperature 73 °F 53 °F - (-1)
Min Temperature 41 °F 35 °F - (-1)
Degree Days  
Heating Degree Days 8    
Growing Degree Days 7 (Base 50)    
Moisture  
Dew Point 21 °F    
Average Humidity 29    
Maximum Humidity 51    
Minimum Humidity 9    
Precipitation  
Precipitation 0.00 in - - ()
Sea Level Pressure  
Sea Level Pressure 30.03 in    
Wind  
Wind Speed 8 mph (WSW)    
Max Wind Speed 17 mph    
Max Gust Speed 30 mph    
Visibility 10 miles    
Events      
Averages and records for this station are not official NWS values.
T = Trace of Precipitation, MM = Missing Value Source: NWS Daily Summary

Daily Weather History Graph

Daily Weather History Graph

Search for Another Location

Airport or City:

Trip Planner

Search our weather history database for the weather conditions in past years. The results will help you decide how hot, cold, wet, or windy it might be!

Date:

Astronomy

Feb. 14, 2011 Rise Set
Actual Time 7:16 AM EST 6:11 PM EST
Civil Twilight 6:50 AM EST 6:37 PM EST
Nautical Twilight 6:20 AM EST 7:06 PM EST
Astronomical Twilight 5:51 AM EST 7:36 PM EST
Moon 2:18 PM EST (2/14) 4:11 AM EST (2/14)
Length of Visible Light 11h 46m
Length of Day
10h 54m
Waxing Gibbous, 83% of the Moon is Illuminated
Feb 14
Waxing Gibbous
Feb 18
Full
Feb 24
Last Quarter
Mar 4
New
Mar 12
First Quarter

Hourly Weather History & Observations

Time (EST) Temp. Windchill Dew Point Humidity Pressure Visibility Wind Dir Wind Speed Gust Speed Precip Events Conditions
12:53 AM 48.0 °F - 23.0 °F 37% 30.12 in 10.0 mi WSW 3.5 mph - N/A   Clear
1:53 AM 48.0 °F - 21.9 °F 36% 30.11 in 10.0 mi WSW 10.4 mph - N/A   Clear
2:53 AM 46.0 °F 41.4 °F 21.9 °F 39% 30.09 in 10.0 mi WSW 9.2 mph - N/A   Clear
3:53 AM 44.1 °F 39.5 °F 23.0 °F 43% 30.07 in 10.0 mi WSW 8.1 mph - N/A   Clear
4:53 AM 44.1 °F 42.5 °F 23.0 °F 43% 30.07 in 10.0 mi WNW 3.5 mph - N/A   Clear
5:53 AM 42.1 °F - 23.0 °F 47% 30.06 in 10.0 mi Calm Calm - N/A   Clear
6:53 AM 41.0 °F 35.8 °F 24.1 °F 51% 30.05 in 10.0 mi WSW 8.1 mph - N/A   Clear
7:53 AM 43.0 °F 38.8 °F 24.1 °F 47% 30.05 in 10.0 mi WSW 6.9 mph - N/A   Clear
8:53 AM 48.0 °F - 24.1 °F 39% 30.04 in 10.0 mi WSW 8.1 mph - N/A   Clear
9:53 AM 54.0 °F - 24.1 °F 31% 30.02 in 10.0 mi SW 12.7 mph - N/A   Clear
10:53 AM 57.9 °F - 24.1 °F 27% 30.00 in 10.0 mi SW 16.1 mph - N/A   Clear
11:53 AM 63.0 °F - 25.0 °F 24% 29.99 in 10.0 mi WSW 13.8 mph 23.0 mph N/A   Clear
12:53 PM 66.0 °F - 26.1 °F 22% 29.95 in 10.0 mi WSW 12.7 mph 21.9 mph N/A   Clear
1:53 PM 69.1 °F - 28.0 °F 22% 29.91 in 10.0 mi WSW 13.8 mph 25.3 mph N/A   Clear
2:53 PM 72.0 °F - 28.0 °F 20% 29.90 in 10.0 mi WSW 15.0 mph 24.2 mph N/A   Clear
3:53 PM 73.0 °F - 15.1 °F 11% 29.91 in 10.0 mi West 16.1 mph 26.5 mph N/A   Clear
4:53 PM 70.0 °F - 7.0 °F 9% 29.93 in 10.0 mi West 17.3 mph 29.9 mph N/A   Clear
5:53 PM 66.0 °F - 14.0 °F 13% 29.97 in 10.0 mi West 13.8 mph 21.9 mph N/A   Clear
6:53 PM 62.1 °F - 15.1 °F 16% 30.02 in 10.0 mi West 9.2 mph - N/A   Clear
8:53 PM 57.0 °F - 15.1 °F 19% 30.07 in 10.0 mi Calm Calm - N/A   Clear
9:53 PM 55.0 °F - 16.0 °F 22% 30.09 in 10.0 mi WNW 4.6 mph - N/A   Clear
10:53 PM 48.9 °F - 18.0 °F 29% 30.12 in 10.0 mi SE 3.5 mph - N/A   Clear
11:53 PM 51.1 °F - 19.9 °F 29% 30.14 in 10.0 mi NNE 11.5 mph - N/A   Clear